Location: Grossmotten
(48.5500°N, 15.3833°E)
Time: 02:24:25
(UTC+00:00)

BREEZE-M DEB (TANK) - Pass Details

Date: 15 November 2019
Orbit: 314 x 16427 km, 49.5° (Epoch: 07 December)

Event Time Altitude Azimuth Distance (km) Brightness Sun altitude
Exits shadow 04:18:42 21° 288° (WNW) 4,780 6.4 -17.6°
Maximum altitude 04:27:58 65° 214° (SW) 1,279 4.0 -16.1°
Drops below altitude 10° 04:32:05 10° 132° (SE) 2,041 6.1 -15.5°
Sets 04:33:26 0° 128° (SE) 2,637 7.0 -15.2°
